This is the latest recevied weather packets stored in our database for station/object PE1BMM-13. If no packets are shown the sender has not sent any weather packets the latest 10 day(s).
| Time | Temp. | Humidity | Pressure | Rain* | Wind** | Luminosity | Snow |
|---|---|---|---|---|---|---|---|
| 1777730055 | 19.44° C | 55% | 1017 hPa | 0 mm | - | - | - |
| 1777729749 | 19.44° C | 56% | 1017.1 hPa | 0 mm | - | - | - |
| 1777729450 | 19.44° C | 59% | 1017.1 hPa | 0 mm | - | - | - |
| 1777729151 | 19.44° C | 57% | 1017.1 hPa | 0 mm | - | - | - |
| 1777728988 | 19.44° C | 57% | 1017.3 hPa | 0 mm | - | - | - |
| 1777728550 | 18.89° C | 60% | 1017.2 hPa | 0 mm | - | - | - |
| 1777728250 | 18.89° C | 60% | 1017.2 hPa | 0 mm | - | - | - |
| 1777727950 | 18.89° C | 62% | 1017.2 hPa | 0 mm | - | - | - |
| 1777727649 | 18.89° C | 63% | 1017.2 hPa | 0 mm | - | - | - |
| 1777727352 | 18.89° C | 65% | 1017.2 hPa | 0 mm | - | - | - |
| 1777727049 | 18.89° C | 70% | 1017.3 hPa | 0 mm | - | - | - |
| 1777726745 | 18.89° C | 70% | 1017.3 hPa | 0 mm | - | - | - |
| 1777726448 | 18.89° C | 70% | 1017.5 hPa | 0 mm | - | - | - |
| 1777726144 | 18.89° C | 74% | 1017.4 hPa | 0 mm | - | - | - |
| 1777725849 | 18.89° C | 75% | 1017.5 hPa | 0 mm | - | - | - |
| 1777725544 | 18.89° C | 75% | 1017.5 hPa | 0 mm | - | - | - |
| 1777725251 | 18.89° C | 76% | 1017.6 hPa | 0 mm | - | - | - |
| 1777724943 | 18.89° C | 76% | 1017.6 hPa | 0 mm | - | - | - |
| 1777724649 | 18.89° C | 75% | 1017.6 hPa | 0 mm | - | - | - |
| 1777724465 | 18.89° C | 77% | 1017.8 hPa | 0 mm | - | - | - |
| 1777724176 | 18.89° C | 76% | 1017.8 hPa | 0 mm | - | - | - |
| 1777723860 | 19.44° C | 76% | 1017.7 hPa | 0 mm | - | - | - |
| 1777723437 | 19.44° C | 76% | 1017.8 hPa | 0 mm | - | - | - |
| 1777723135 | 19.44° C | 76% | 1017.8 hPa | 0 mm | - | - | - |
| 1777722834 | 19.44° C | 76% | 1017.8 hPa | 0 mm | - | - | - |
* Rain latest hour (hover to see other rain measurements)
** Current wind speed in m/s (hover to see current wind gust speed)